sat.trackr.live / text

‹ back to catalog

STARLINK-3697

NORAD 51962 · 2022-025G

PAYLOAD ACTIVE UNKNOWN

§ Identity

Operator
Country
US
Launch date
2022-03-09
Launch site
AFETR
Launch vehicle
Mass (kg)
RCS (m²)

Purposes: comms

External: N2YO · Heavens-Above · Gunter

§ Orbital elements

Epoch: 2026-05-25T01:20:59.790912Z

Period
94.01 min
Inclination
53.1618°
Eccentricity
0.0001399
Mean motion
15.31696048 rev/d
Perigee alt
469.8 km
Apogee alt
471.7 km
Semi-major
6,848.9 km
B*
1.4057e-4
RAAN
29.1117°
Arg perigee
101.6428°
Mean anomaly
258.4730°
Rev number
23,271

§ Raw data

STARLINK-36971 51962U 22025G   26145.05624758  .00003999  00000+0  14057-3 0  99982 51962  53.1618  29.1117 0001399 101.6428 258.4730 15.31696048232711

JSON: /api/v1/satellites/51962 · /tle

For live sub-satellite position, see the globe view (requires WebGL).

§ Visibility from observer

Set your observer location to see the next 7 days of passes ≥ 10°. The values pass through the URL so the page stays shareable.

No JS? Fill the form by hand. The geolocation button needs JavaScript.